"read_dt","SO2 (ppb)","flags","PMT voltage (V)","lamp voltage (V)","lamp intensity (Hz)","internal temp (C)","react chamber temp (C)","sample flow (l/min)","pres (mmHg)","SO2 bkg (ppb)","SO2 coefficient"
2014-05-11 00:00:00,2899E-2,5C000410,-0724,1092,9639,027.7,045.3,0.156,749.8,01.17,0.508
2014-05-11 00:01:00,2910E-2,5C000410,-0724,1091,9577,027.7,045.3,0.156,749.8,01.17,0.508
2014-05-11 00:02:00,2937E-2,5C000410,-0724,1093,9629,027.7,045.3,0.156,749.8,01.17,0.508
2014-05-11 00:03:00,2927E-2,5C000410,-0724,1092,9614,027.7,045.3,0.156,749.8,01.17,0.508
2014-05-11 00:04:00,2894E-2,5C000410,-0724,1093,9559,027.7,045.3,0.156,749.8,01.17,0.508
2014-05-11 00:05:00,2952E-2,5C000410,-0724,1092,9640,027.7,045.3,0.156,749.8,01.17,0.508
2014-05-11 00:06:00,2896E-2,5C000410,-0724,1093,9663,027.7,045.3,0.156,749.7,01.17,0.508
2014-05-11 00:07:00,2926E-2,5C000410,-0724,1093,9570,027.7,045.3,0.156,749.8,01.17,0.508
2014-05-11 00:08:00,2972E-2,5C000410,-0724,1092,9608,027.7,045.3,0.156,749.8,01.17,0.508
2014-05-11 00:09:00,2935E-2,5C000410,-0724,1094,9523,027.7,045.3,0.156,749.7,01.17,0.508
2014-05-11 00:10:00,2959E-2,5C000410,-0724,1094,9583,027.7,045.3,0.156,749.7,01.17,0.508
2014-05-11 00:11:00,2942E-2,5C000410,-0724,1094,9634,027.7,045.3,0.156,749.6,01.17,0.508
2014-05-11 00:12:00,2956E-2,5C000410,-0724,1095,9783,027.7,045.3,0.156,749.7,01.17,0.508
2014-05-11 00:13:00,2940E-2,5C000410,-0724,1095,9634,027.7,045.3,0.156,749.7,01.17,0.508
2014-05-11 00:14:00,2940E-2,5C000410,-0724,1095,9458,027.7,045.3,0.156,749.7,01.17,0.508
2014-05-11 00:15:00,3002E-2,5C000410,-0724,1096,9515,027.7,045.3,0.156,749.7,01.17,0.508
2014-05-11 00:16:00,2962E-2,5C000410,-0724,1095,9459,027.7,045.3,0.156,749.6,01.17,0.508
2014-05-11 00:17:00,2925E-2,5C000410,-0724,1095,9587,027.6,045.3,0.156,749.6,01.17,0.508
2014-05-11 00:18:00,2953E-2,5C000410,-0724,1096,9540,027.6,045.3,0.156,749.7,01.17,0.508
2014-05-11 00:19:00,2938E-2,5C000410,-0724,1096,9594,027.7,045.3,0.156,749.8,01.17,0.508
2014-05-11 00:20:00,2972E-2,5C000410,-0724,1097,9669,027.7,045.3,0.156,749.7,01.17,0.508
2014-05-11 00:21:00,2917E-2,5C000410,-0724,1098,9601,027.7,045.3,0.156,749.7,01.17,0.508
2014-05-11 00:22:00,2943E-2,5C000410,-0724,1097,9515,027.7,045.3,0.156,749.7,01.17,0.508
2014-05-11 00:23:00,2976E-2,5C000410,-0724,1097,9590,027.7,045.3,0.156,749.8,01.17,0.508
2014-05-11 00:24:00,2938E-2,5C000410,-0724,1095,9455,027.7,045.3,0.156,749.7,01.17,0.508
2014-05-11 00:25:00,2934E-2,5C000410,-0724,1095,9509,027.7,045.3,0.156,749.7,01.17,0.508
2014-05-11 00:26:00,2958E-2,5C000410,-0724,1094,9501,027.7,045.3,0.156,749.7,01.17,0.508
2014-05-11 00:27:00,2951E-2,5C000410,-0724,1096,9670,027.7,045.3,0.156,749.8,01.17,0.508
2014-05-11 00:28:00,2948E-2,5C000410,-0724,1096,9650,027.7,045.3,0.156,749.8,01.17,0.508
2014-05-11 00:29:00,2971E-2,5C000410,-0724,1095,9515,027.7,045.3,0.156,749.8,01.17,0.508
2014-05-11 00:30:00,2935E-2,5C000410,-0724,1095,9434,027.7,045.3,0.156,749.7,01.17,0.508
2014-05-11 00:31:00,2940E-2,5C000410,-0724,1097,9611,027.7,045.3,0.156,749.8,01.17,0.508
2014-05-11 00:32:00,2922E-2,5C000410,-0724,1097,9496,027.7,045.3,0.156,749.8,01.17,0.508
2014-05-11 00:33:00,2986E-2,5C000410,-0724,1096,9498,027.7,045.3,0.156,749.7,01.17,0.508
2014-05-11 00:34:00,2932E-2,5C000410,-0724,1096,9640,027.7,045.3,0.156,749.8,01.17,0.508
2014-05-11 00:35:00,2951E-2,5C000410,-0724,1097,9613,027.7,045.3,0.156,749.9,01.17,0.508
2014-05-11 00:36:00,2917E-2,5C000410,-0724,1097,9644,027.7,045.3,0.156,749.8,01.17,0.508
2014-05-11 00:37:00,2936E-2,5C000410,-0724,1097,9534,027.7,045.3,0.156,749.8,01.17,0.508
2014-05-11 00:38:00,2970E-2,5C000410,-0724,1097,9532,027.7,045.3,0.156,749.8,01.17,0.508
2014-05-11 00:39:00,2964E-2,5C000410,-0724,1098,9410,027.6,045.3,0.156,749.9,01.17,0.508
2014-05-11 00:40:00,2987E-2,5C000410,-0724,1098,9654,027.7,045.3,0.156,749.8,01.17,0.508
2014-05-11 00:41:00,2948E-2,5C000410,-0724,1097,9584,027.7,045.3,0.156,749.9,01.17,0.508
2014-05-11 00:42:00,2990E-2,5C000410,-0724,1098,9524,027.7,045.3,0.156,749.8,01.17,0.508
2014-05-11 00:43:00,2954E-2,5C000410,-0724,1096,9621,027.7,045.3,0.156,749.8,01.17,0.508
2014-05-11 00:44:00,2937E-2,5C000410,-0724,1098,9538,027.7,045.3,0.156,749.9,01.17,0.508
2014-05-11 00:45:00,2956E-2,5C000410,-0724,1098,9450,027.7,045.3,0.156,749.8,01.17,0.508
2014-05-11 00:46:00,2974E-2,5C000410,-0724,1099,9580,027.7,045.3,0.156,749.8,01.17,0.508
2014-05-11 00:47:00,2969E-2,5C000410,-0724,1098,9461,027.7,045.3,0.156,749.8,01.17,0.508
2014-05-11 00:48:00,2983E-2,5C000410,-0724,1100,9551,027.7,045.3,0.156,749.8,01.17,0.508
2014-05-11 00:49:00,2970E-2,5C000410,-0724,1099,9625,027.7,045.3,0.156,749.8,01.17,0.508
2014-05-11 00:50:00,2972E-2,5C000410,-0724,1099,9501,027.7,045.3,0.156,749.9,01.17,0.508
2014-05-11 00:51:00,2968E-2,5C000410,-0724,1099,9436,027.7,045.3,0.156,749.8,01.17,0.508
2014-05-11 00:52:00,2873E-2,5C000410,-0724,1101,9510,027.7,045.3,0.156,749.8,01.17,0.508
2014-05-11 00:53:00,2988E-2,5C000410,-0724,1102,9423,027.7,045.3,0.156,749.8,01.17,0.508
2014-05-11 00:54:00,3017E-2,5C000410,-0724,1102,9468,027.7,045.3,0.156,749.9,01.17,0.508
2014-05-11 00:55:00,2992E-2,5C000410,-0724,1101,9490,027.7,045.3,0.156,749.9,01.17,0.508
2014-05-11 00:56:00,2961E-2,5C000410,-0724,1100,9486,027.7,045.3,0.156,749.9,01.17,0.508
2014-05-11 00:57:00,2950E-2,5C000410,-0724,1100,9514,027.7,045.3,0.156,749.9,01.17,0.508
2014-05-11 00:58:00,2963E-2,5C000410,-0724,1100,9501,027.7,045.3,0.156,749.8,01.17,0.508
2014-05-11 00:59:00,2944E-2,5C000410,-0724,1099,9540,027.7,045.3,0.156,749.9,01.17,0.508
2014-05-11 01:00:00,2963E-2,5C000410,-0724,1100,9549,027.7,045.3,0.156,749.9,01.17,0.508
2014-05-11 01:01:00,2929E-2,5C000410,-0724,1101,9592,027.7,045.3,0.156,749.9,01.17,0.508
2014-05-11 01:02:00,2938E-2,5C000410,-0724,1100,9532,027.7,045.3,0.156,749.9,01.17,0.508
2014-05-11 01:03:00,2924E-2,5C000410,-0724,1100,9621,027.7,045.3,0.156,749.8,01.17,0.508
2014-05-11 01:04:00,2904E-2,5C000410,-0724,1101,9519,027.7,045.3,0.156,749.9,01.17,0.508
2014-05-11 01:05:00,2984E-2,5C000410,-0724,1101,9456,027.7,045.3,0.156,749.8,01.17,0.508
2014-05-11 01:06:00,2955E-2,5C000410,-0724,1101,9462,027.7,045.3,0.156,749.8,01.17,0.508
2014-05-11 01:07:00,2906E-2,5C000410,-0724,1096,9512,027.7,045.3,0.156,749.8,01.17,0.508
2014-05-11 01:08:00,2960E-2,5C000410,-0724,1098,9549,027.7,045.3,0.156,749.8,01.17,0.508
2014-05-11 01:09:00,2961E-2,5C000410,-0724,1098,9612,027.7,045.3,0.156,749.8,01.17,0.508
2014-05-11 01:10:00,2938E-2,5C000410,-0724,1097,9643,027.7,045.3,0.156,749.8,01.17,0.508
2014-05-11 01:11:00,2972E-2,5C000410,-0724,1099,9739,027.7,045.3,0.156,749.8,01.17,0.508
2014-05-11 01:12:00,2931E-2,5C000410,-0724,1099,9630,027.7,045.3,0.156,749.8,01.17,0.508
2014-05-11 01:13:00,2981E-2,5C000410,-0724,1099,9314,027.7,045.3,0.156,749.8,01.17,0.508
2014-05-11 01:14:00,2972E-2,5C000410,-0724,1099,9383,027.7,045.3,0.156,749.8,01.17,0.508
2014-05-11 01:15:00,2942E-2,5C000410,-0724,1100,9666,027.7,045.3,0.156,749.7,01.17,0.508
2014-05-11 01:16:00,2961E-2,5C000410,-0724,1100,9666,027.7,045.3,0.156,749.7,01.17,0.508
2014-05-11 01:17:00,2925E-2,5C000410,-0724,1099,9512,027.7,045.3,0.156,749.8,01.17,0.508
2014-05-11 01:18:00,2971E-2,5C000410,-0724,1099,9576,027.7,045.3,0.156,749.7,01.17,0.508
2014-05-11 01:19:00,2924E-2,5C000410,-0724,1098,9608,027.7,045.3,0.156,749.8,01.17,0.508
2014-05-11 01:20:00,2923E-2,5C000410,-0724,1098,9437,027.7,045.3,0.156,749.8,01.17,0.508
2014-05-11 01:21:00,2949E-2,5C000410,-0724,1100,9566,027.7,045.3,0.156,749.7,01.17,0.508
2014-05-11 01:22:00,2942E-2,5C000410,-0724,1100,9518,027.7,045.3,0.156,749.8,01.17,0.508
2014-05-11 01:23:00,2959E-2,5C000410,-0724,1099,9387,027.7,045.3,0.156,749.9,01.17,0.508
2014-05-11 01:24:00,2955E-2,5C000410,-0724,1100,9600,027.7,045.3,0.156,749.9,01.17,0.508
2014-05-11 01:25:00,2929E-2,5C000410,-0724,1099,9427,027.7,045.3,0.156,749.8,01.17,0.508
2014-05-11 01:26:00,2942E-2,5C000410,-0724,1099,9401,027.7,045.3,0.156,749.9,01.17,0.508
2014-05-11 01:27:00,2951E-2,5C000410,-0724,1099,9518,027.7,045.3,0.156,749.9,01.17,0.508
2014-05-11 01:28:00,2979E-2,5C000410,-0724,1100,9405,027.7,045.3,0.156,749.9,01.17,0.508
2014-05-11 01:29:00,2948E-2,5C000410,-0724,1102,9426,027.7,045.3,0.156,750.0,01.17,0.508
2014-05-11 01:30:00,3002E-2,5C000410,-0724,1103,9567,027.7,045.3,0.156,750.0,01.17,0.508
2014-05-11 01:31:00,2984E-2,5C000410,-0724,1102,9507,027.7,045.3,0.156,750.0,01.17,0.508
2014-05-11 01:32:00,2977E-2,5C000410,-0724,1104,9354,027.7,045.3,0.156,750.0,01.17,0.508
2014-05-11 01:33:00,3006E-2,5C000410,-0724,1105,9476,027.7,045.3,0.156,750.1,01.17,0.508
2014-05-11 01:34:00,3004E-2,5C000410,-0724,1103,9560,027.7,045.3,0.156,750.1,01.17,0.508
2014-05-11 01:35:00,2995E-2,5C000410,-0724,1103,9577,027.7,045.3,0.156,750.0,01.17,0.508
2014-05-11 01:36:00,2946E-2,5C000410,-0724,1104,9518,027.7,045.3,0.156,750.1,01.17,0.508
2014-05-11 01:37:00,3017E-2,5C000410,-0724,1104,9478,027.7,045.3,0.156,750.1,01.17,0.508
2014-05-11 01:38:00,2988E-2,5C000410,-0724,1103,9488,027.7,045.3,0.156,750.1,01.17,0.508
2014-05-11 01:39:00,2982E-2,5C000410,-0724,1104,9530,027.7,045.3,0.156,750.2,01.17,0.508
2014-05-11 01:40:00,2979E-2,5C000410,-0724,1105,9526,027.7,045.3,0.156,750.1,01.17,0.508
2014-05-11 01:41:00,2944E-2,5C000410,-0724,1106,9292,027.7,045.3,0.156,750.1,01.17,0.508
2014-05-11 01:42:00,3066E-2,5C000410,-0724,1106,9359,027.7,045.3,0.156,750.1,01.17,0.508
2014-05-11 01:43:00,3037E-2,5C000410,-0724,1106,9548,027.7,045.3,0.156,750.2,01.17,0.508
2014-05-11 01:44:00,3030E-2,5C000410,-0724,1106,9429,027.7,045.3,0.156,750.2,01.17,0.508
2014-05-11 01:45:00,2999E-2,5C000410,-0724,1105,9426,027.7,045.3,0.156,750.1,01.17,0.508
2014-05-11 01:46:00,3023E-2,5C000410,-0724,1105,9526,027.7,045.3,0.156,750.2,01.17,0.508
2014-05-11 01:47:00,3007E-2,5C000410,-0724,1106,9646,027.7,045.3,0.156,750.2,01.17,0.508
2014-05-11 01:48:00,3027E-2,5C000410,-0724,1106,9475,027.7,045.3,0.156,750.2,01.17,0.508
2014-05-11 01:49:00,3040E-2,5C000410,-0724,1106,9445,027.7,045.3,0.156,750.2,01.17,0.508
2014-05-11 01:50:00,3011E-2,5C000410,-0724,1106,9554,027.7,045.3,0.156,750.2,01.17,0.508
2014-05-11 01:51:00,3008E-2,5C000410,-0724,1106,9568,027.7,045.3,0.156,750.2,01.17,0.508
2014-05-11 01:52:00,3016E-2,5C000410,-0724,1106,9380,027.7,045.3,0.156,750.3,01.17,0.508
2014-05-11 01:53:00,3020E-2,5C000410,-0724,1106,9470,027.7,045.3,0.156,750.2,01.17,0.508
2014-05-11 01:54:00,3026E-2,5C000410,-0724,1107,9434,027.7,045.3,0.156,750.2,01.17,0.508
2014-05-11 01:55:00,3019E-2,5C000410,-0724,1107,9565,027.7,045.3,0.156,750.2,01.17,0.508
2014-05-11 01:56:00,3038E-2,5C000410,-0724,1106,9602,027.7,045.3,0.156,750.2,01.17,0.508
2014-05-11 01:57:00,3051E-2,5C000410,-0724,1106,9461,027.7,045.3,0.156,750.2,01.17,0.508
2014-05-11 01:58:00,3046E-2,5C000410,-0724,1107,9419,027.7,045.3,0.156,750.3,01.17,0.508
2014-05-11 01:59:00,3003E-2,5C000410,-0724,1108,9404,027.7,045.3,0.156,750.3,01.17,0.508
2014-05-11 02:00:00,3097E-2,5C000410,-0724,1107,9400,027.7,045.3,0.156,750.2,01.17,0.508
2014-05-11 02:01:00,3026E-2,5C000410,-0724,1108,9506,027.7,045.3,0.156,750.2,01.17,0.508
2014-05-11 02:02:00,3003E-2,5C000410,-0724,1108,9445,027.7,045.3,0.156,750.3,01.17,0.508
2014-05-11 02:03:00,3049E-2,5C000410,-0724,1109,9420,027.7,045.3,0.156,750.3,01.17,0.508
2014-05-11 02:04:00,3029E-2,5C000410,-0724,1109,9497,027.7,045.3,0.156,750.3,01.17,0.508
2014-05-11 02:05:00,3059E-2,5C000410,-0724,1108,9464,027.7,045.3,0.156,750.3,01.17,0.508
2014-05-11 02:06:00,3055E-2,5C000410,-0724,1109,9603,027.7,045.3,0.156,750.3,01.17,0.508
2014-05-11 02:07:00,3045E-2,5C000410,-0724,1109,9254,027.7,045.3,0.156,750.3,01.17,0.508
2014-05-11 02:08:00,3084E-2,5C000410,-0724,1108,9340,027.7,045.3,0.156,750.3,01.17,0.508
2014-05-11 02:09:00,3071E-2,5C000410,-0724,1108,9335,027.7,045.3,0.156,750.3,01.17,0.508
2014-05-11 02:10:00,3048E-2,5C000410,-0724,1108,9586,027.7,045.3,0.156,750.3,01.17,0.508
2014-05-11 02:11:00,3065E-2,5C000410,-0724,1109,9279,027.7,045.3,0.156,750.4,01.17,0.508
2014-05-11 02:12:00,3031E-2,5C000410,-0724,1108,9434,027.7,045.3,0.156,750.4,01.17,0.508
2014-05-11 02:13:00,3018E-2,5C000410,-0724,1109,9587,027.7,045.3,0.156,750.3,01.17,0.508
2014-05-11 02:14:00,3066E-2,5C000410,-0724,1108,9402,027.7,045.3,0.156,750.3,01.17,0.508
2014-05-11 02:15:00,3021E-2,5C000410,-0724,1109,9452,027.7,045.3,0.156,750.4,01.17,0.508
2014-05-11 02:16:00,3050E-2,5C000410,-0724,1107,9521,027.7,045.3,0.156,750.3,01.17,0.508
2014-05-11 02:17:00,3032E-2,5C000410,-0724,1108,9482,027.7,045.3,0.156,750.4,01.17,0.508
2014-05-11 02:18:00,3049E-2,5C000410,-0724,1109,9478,027.7,045.3,0.156,750.4,01.17,0.508
2014-05-11 02:19:00,3071E-2,5C000410,-0724,1109,9467,027.7,045.3,0.156,750.4,01.17,0.508
2014-05-11 02:20:00,3046E-2,5C000410,-0724,1108,9482,027.7,045.3,0.156,750.4,01.17,0.508
2014-05-11 02:21:00,3063E-2,5C000410,-0724,1108,9504,027.7,045.3,0.156,750.4,01.17,0.508
2014-05-11 02:22:00,3075E-2,5C000410,-0724,1108,9386,027.7,045.3,0.156,750.4,01.17,0.508
2014-05-11 02:23:00,3076E-2,5C000410,-0724,1108,9372,027.7,045.3,0.156,750.4,01.17,0.508
2014-05-11 02:24:00,3052E-2,5C000410,-0724,1108,9499,027.7,045.3,0.156,750.4,01.17,0.508
2014-05-11 02:25:00,3017E-2,5C000410,-0724,1110,9388,027.7,045.3,0.156,750.4,01.17,0.508
2014-05-11 02:26:00,2999E-2,5C000410,-0724,1109,9364,027.7,045.3,0.156,750.4,01.17,0.508
2014-05-11 02:27:00,3014E-2,5C000410,-0724,1109,9433,027.7,045.3,0.156,750.4,01.17,0.508
2014-05-11 02:28:00,2951E-2,5C000410,-0724,1110,9355,027.7,045.3,0.156,750.4,01.17,0.508
2014-05-11 02:29:00,2975E-2,5C000410,-0724,1109,9515,027.7,045.3,0.156,750.5,01.17,0.508
2014-05-11 02:30:00,2995E-2,5C000410,-0724,1109,9412,027.7,045.3,0.156,750.4,01.17,0.508
2014-05-11 02:31:00,2994E-2,5C000410,-0724,1110,9542,027.7,045.3,0.156,750.4,01.17,0.508
2014-05-11 02:32:00,3000E-2,5C000410,-0724,1108,9384,027.7,045.3,0.156,750.5,01.17,0.508
2014-05-11 02:33:00,2971E-2,5C000410,-0724,1109,9532,027.7,045.3,0.156,750.5,01.17,0.508
2014-05-11 02:34:00,2974E-2,5C000410,-0724,1110,9536,027.7,045.3,0.156,750.5,01.17,0.508
2014-05-11 02:35:00,2952E-2,5C000410,-0724,1109,9563,027.7,045.3,0.156,750.5,01.17,0.508
2014-05-11 02:36:00,2957E-2,5C000410,-0724,1109,9510,027.7,045.3,0.156,750.5,01.17,0.508
2014-05-11 02:37:00,3002E-2,5C000410,-0724,1109,9448,027.7,045.3,0.156,750.4,01.17,0.508
2014-05-11 02:38:00,3005E-2,5C000410,-0724,1109,9372,027.7,045.3,0.156,750.5,01.17,0.508
2014-05-11 02:39:00,2972E-2,5C000410,-0724,1109,9523,027.7,045.3,0.156,750.5,01.17,0.508
2014-05-11 02:40:00,2984E-2,5C000410,-0724,1110,9377,027.7,045.3,0.156,750.5,01.17,0.508
2014-05-11 02:41:00,2993E-2,5C000410,-0724,1109,9408,027.7,045.3,0.156,750.5,01.17,0.508
2014-05-11 02:42:00,2998E-2,5C000410,-0724,1110,9404,027.7,045.3,0.156,750.5,01.17,0.508
2014-05-11 02:43:00,2994E-2,5C000410,-0724,1109,9386,027.7,045.3,0.156,750.5,01.17,0.508
2014-05-11 02:44:00,2972E-2,5C000410,-0724,1109,9477,027.7,045.3,0.156,750.5,01.17,0.508
2014-05-11 02:45:00,2982E-2,5C000410,-0724,1109,9463,027.7,045.3,0.156,750.5,01.17,0.508
2014-05-11 02:46:00,2975E-2,5C000410,-0724,1109,9455,027.7,045.3,0.156,750.5,01.17,0.508
2014-05-11 02:47:00,3009E-2,5C000410,-0724,1110,9378,027.7,045.3,0.156,750.4,01.17,0.508
2014-05-11 02:48:00,2984E-2,5C000410,-0724,1108,9452,027.7,045.3,0.156,750.5,01.17,0.508
2014-05-11 02:49:00,2993E-2,5C000410,-0724,1109,9523,027.7,045.3,0.156,750.6,01.17,0.508
2014-05-11 02:50:00,2973E-2,5C000410,-0724,1108,9464,027.7,045.3,0.156,750.6,01.17,0.508
2014-05-11 02:51:00,2983E-2,5C000410,-0724,1107,9329,027.7,045.3,0.156,750.5,01.17,0.508
2014-05-11 02:52:00,3011E-2,5C000410,-0724,1109,9450,027.7,045.3,0.156,750.5,01.17,0.508
2014-05-11 02:53:00,3026E-2,5C000410,-0724,1109,9429,027.7,045.3,0.156,750.6,01.17,0.508
2014-05-11 02:54:00,3025E-2,5C000410,-0724,1111,9201,027.7,045.3,0.156,750.6,01.17,0.508
2014-05-11 02:55:00,2998E-2,5C000410,-0724,1109,9540,027.7,045.3,0.156,750.5,01.17,0.508
2014-05-11 02:56:00,3008E-2,5C000410,-0724,1109,9469,027.7,045.3,0.156,750.5,01.17,0.508
2014-05-11 02:57:00,3020E-2,5C000410,-0724,1110,9422,027.7,045.3,0.156,750.6,01.17,0.508
2014-05-11 02:58:00,2991E-2,5C000410,-0724,1111,9369,027.7,045.3,0.156,750.5,01.17,0.508
2014-05-11 02:59:00,2934E-2,5C000410,-0724,1110,9328,027.7,045.3,0.156,750.5,01.17,0.508
2014-05-11 03:00:00,3045E-2,5C000410,-0724,1110,9545,027.7,045.3,0.156,750.5,01.17,0.508
2014-05-11 03:01:00,3014E-2,5C000410,-0724,1110,9457,027.7,045.3,0.156,750.5,01.17,0.508
2014-05-11 03:02:00,3038E-2,5C000410,-0724,1110,9432,027.7,045.3,0.156,750.5,01.17,0.508
2014-05-11 03:03:00,3003E-2,5C000410,-0724,1111,9512,027.7,045.3,0.156,750.5,01.17,0.508
2014-05-11 03:04:00,2992E-2,5C000410,-0724,1110,9407,027.7,045.3,0.156,750.4,01.17,0.508
2014-05-11 03:05:00,3037E-2,5C000410,-0724,1110,9412,027.7,045.3,0.156,750.4,01.17,0.508
2014-05-11 03:06:00,2991E-2,5C000410,-0724,1111,9401,027.7,045.3,0.156,750.5,01.17,0.508
2014-05-11 03:07:00,3037E-2,5C000410,-0724,1110,9423,027.7,045.3,0.156,750.5,01.17,0.508
2014-05-11 03:08:00,3060E-2,5C000410,-0724,1110,9360,027.7,045.3,0.156,750.5,01.17,0.508
2014-05-11 03:09:00,2996E-2,5C000410,-0724,1112,9564,027.7,045.3,0.156,750.5,01.17,0.508
2014-05-11 03:10:00,2977E-2,5C000410,-0724,1111,9463,027.7,045.3,0.156,750.5,01.17,0.508
2014-05-11 03:11:00,2967E-2,5C000410,-0724,1110,9467,027.7,045.3,0.156,750.5,01.17,0.508
2014-05-11 03:12:00,2975E-2,5C000410,-0724,1110,9468,027.7,045.3,0.156,750.5,01.17,0.508
2014-05-11 03:13:00,3031E-2,5C000410,-0724,1110,9473,027.7,045.3,0.156,750.5,01.17,0.508
2014-05-11 03:14:00,3048E-2,5C000410,-0724,1110,9386,027.7,045.3,0.156,750.5,01.17,0.508
2014-05-11 03:15:00,3016E-2,5C000410,-0724,1111,9405,027.7,045.3,0.156,750.5,01.17,0.508
2014-05-11 03:16:00,3034E-2,5C000410,-0724,1111,9384,027.7,045.3,0.156,750.5,01.17,0.508
2014-05-11 03:17:00,2987E-2,5C000410,-0724,1110,9564,027.7,045.3,0.156,750.5,01.17,0.508
2014-05-11 03:18:00,2992E-2,5C000410,-0724,1109,9499,027.6,045.3,0.156,750.5,01.17,0.508
2014-05-11 03:19:00,3024E-2,5C000410,-0724,1109,9453,027.6,045.3,0.156,750.5,01.17,0.508
2014-05-11 03:20:00,3034E-2,5C000410,-0724,1110,9418,027.6,045.3,0.156,750.5,01.17,0.508
2014-05-11 03:21:00,2998E-2,5C000410,-0724,1109,9320,027.6,045.3,0.156,750.5,01.17,0.508
2014-05-11 03:22:00,3057E-2,5C000410,-0724,1110,9588,027.7,045.3,0.156,750.5,01.17,0.508
2014-05-11 03:23:00,2983E-2,5C000410,-0724,1112,9472,027.7,045.3,0.156,750.5,01.17,0.508
2014-05-11 03:24:00,3042E-2,5C000410,-0724,1110,9430,027.6,045.3,0.156,750.4,01.17,0.508
2014-05-11 03:25:00,3052E-2,5C000410,-0724,1110,9458,027.6,045.3,0.156,750.4,01.17,0.508
2014-05-11 03:26:00,3042E-2,5C000410,-0724,1111,9378,027.7,045.3,0.156,750.4,01.17,0.508
2014-05-11 03:27:00,2991E-2,5C000410,-0724,1110,9410,027.6,045.3,0.156,750.5,01.17,0.508
2014-05-11 03:28:00,2987E-2,5C000410,-0724,1112,9443,027.6,045.3,0.156,750.5,01.17,0.508
2014-05-11 03:29:00,3005E-2,5C000410,-0724,1111,9380,027.6,045.3,0.156,750.5,01.17,0.508
2014-05-11 03:30:00,3049E-2,5C000410,-0724,1113,9297,027.6,045.3,0.156,750.4,01.17,0.508
2014-05-11 03:31:00,3002E-2,5C000410,-0724,1112,9379,027.7,045.3,0.156,750.4,01.17,0.508
2014-05-11 03:32:00,3016E-2,5C000410,-0724,1112,9487,027.7,045.3,0.156,750.5,01.17,0.508
2014-05-11 03:33:00,3022E-2,5C000410,-0724,1111,9344,027.7,045.3,0.156,750.4,01.17,0.508
2014-05-11 03:34:00,3003E-2,5C000410,-0724,1111,9383,027.6,045.3,0.156,750.5,01.17,0.508
2014-05-11 03:35:00,3026E-2,5C000410,-0724,1112,9497,027.6,045.3,0.156,750.5,01.17,0.508
2014-05-11 03:36:00,3042E-2,5C000410,-0724,1111,9263,027.6,045.3,0.156,750.4,01.17,0.508
2014-05-11 03:37:00,3012E-2,5C000410,-0724,1113,9421,027.7,045.3,0.156,750.5,01.17,0.508
2014-05-11 03:38:00,3031E-2,5C000410,-0724,1112,9386,027.6,045.3,0.156,750.5,01.17,0.508
2014-05-11 03:39:00,3003E-2,5C000410,-0724,1113,9449,027.6,045.3,0.156,750.5,01.17,0.508
2014-05-11 03:40:00,3044E-2,5C000410,-0724,1111,9508,027.6,045.3,0.156,750.5,01.17,0.508
2014-05-11 03:41:00,3034E-2,5C000410,-0724,1111,9371,027.6,045.3,0.156,750.4,01.17,0.508
2014-05-11 03:42:00,3026E-2,5C000410,-0724,1113,9425,027.6,045.3,0.156,750.4,01.17,0.508
2014-05-11 03:43:00,3034E-2,5C000410,-0724,1112,9473,027.6,045.3,0.156,750.4,01.17,0.508
2014-05-11 03:44:00,3084E-2,5C000410,-0724,1112,9525,027.6,045.3,0.156,750.4,01.17,0.508
2014-05-11 03:45:00,3031E-2,5C000410,-0724,1113,9601,027.6,045.3,0.156,750.4,01.17,0.508
2014-05-11 03:46:00,3002E-2,5C000410,-0724,1111,9354,027.6,045.3,0.156,750.4,01.17,0.508
2014-05-11 03:47:00,3083E-2,5C000410,-0724,1112,9470,027.7,045.3,0.156,750.4,01.17,0.508
2014-05-11 03:48:00,2988E-2,5C000410,-0724,1112,9459,027.6,045.3,0.156,750.4,01.17,0.508
2014-05-11 03:49:00,3039E-2,5C000410,-0724,1111,9473,027.6,045.3,0.156,750.4,01.17,0.508
2014-05-11 03:50:00,3029E-2,5C000410,-0724,1110,9457,027.6,045.3,0.156,750.4,01.17,0.508
2014-05-11 03:51:00,3019E-2,5C000410,-0724,1113,9466,027.6,045.3,0.156,750.4,01.17,0.508
2014-05-11 03:52:00,2997E-2,5C000410,-0724,1111,9522,027.6,045.3,0.156,750.4,01.17,0.508
2014-05-11 03:53:00,3066E-2,5C000410,-0724,1111,9475,027.6,045.3,0.156,750.4,01.17,0.508
2014-05-11 03:54:00,2987E-2,5C000410,-0724,1112,9375,027.6,045.3,0.156,750.4,01.17,0.508
2014-05-11 03:55:00,3016E-2,5C000410,-0724,1112,9385,027.6,045.3,0.156,750.4,01.17,0.508
2014-05-11 03:56:00,3037E-2,5C000410,-0724,1110,9278,027.6,045.3,0.156,750.4,01.17,0.508
2014-05-11 03:57:00,3021E-2,5C000410,-0724,1112,9434,027.6,045.3,0.156,750.4,01.17,0.508
2014-05-11 03:58:00,2971E-2,5C000410,-0724,1112,9516,027.6,045.3,0.156,750.4,01.17,0.508
2014-05-11 03:59:00,3011E-2,5C000410,-0724,1112,9454,027.6,045.3,0.156,750.4,01.17,0.508
2014-05-11 04:00:00,3047E-2,5C000410,-0724,1112,9311,027.6,045.3,0.156,750.4,01.17,0.508
2014-05-11 04:01:00,3017E-2,5C000410,-0724,1113,9434,027.6,045.3,0.156,750.4,01.17,0.508
2014-05-11 04:02:00,3003E-2,5C000410,-0724,1112,9367,027.6,045.3,0.156,750.4,01.17,0.508
2014-05-11 04:03:00,3055E-2,5C000410,-0724,1113,9308,027.6,045.3,0.156,750.4,01.17,0.508
2014-05-11 04:04:00,3010E-2,5C000410,-0724,1112,9354,027.6,045.3,0.156,750.4,01.17,0.508
2014-05-11 04:05:00,3023E-2,5C000410,-0724,1112,9533,027.6,045.3,0.156,750.4,01.17,0.508
2014-05-11 04:06:00,3078E-2,5C000410,-0724,1113,9447,027.6,045.3,0.156,750.4,01.17,0.508
2014-05-11 04:07:00,3031E-2,5C000410,-0724,1112,9486,027.6,045.3,0.156,750.4,01.17,0.508
2014-05-11 04:08:00,3023E-2,5C000410,-0724,1112,9318,027.6,045.3,0.156,750.4,01.17,0.508
2014-05-11 04:09:00,3028E-2,5C000410,-0724,1112,9445,027.6,045.3,0.156,750.4,01.17,0.508
2014-05-11 04:10:00,3040E-2,5C000410,-0724,1111,9257,027.6,045.3,0.156,750.4,01.17,0.508
2014-05-11 04:11:00,3053E-2,5C000410,-0724,1112,9426,027.6,045.3,0.156,750.4,01.17,0.508
2014-05-11 04:12:00,3069E-2,5C000410,-0724,1112,9349,027.6,045.3,0.156,750.5,01.17,0.508
2014-05-11 04:13:00,3085E-2,5C000410,-0724,1112,9439,027.6,045.3,0.156,750.5,01.17,0.508
2014-05-11 04:14:00,3102E-2,5C000410,-0724,1112,9410,027.6,045.3,0.156,750.4,01.17,0.508
2014-05-11 04:15:00,3046E-2,5C000410,-0724,1113,9357,027.6,045.3,0.157,750.4,01.17,0.508
2014-05-11 04:16:00,3059E-2,5C000410,-0724,1112,9349,027.6,045.3,0.156,750.4,01.17,0.508
2014-05-11 04:17:00,3148E-2,5C000410,-0724,1112,9409,027.6,045.3,0.156,750.5,01.17,0.508
2014-05-11 04:18:00,3012E-2,5C000410,-0724,1112,9398,027.6,045.3,0.156,750.5,01.17,0.508
2014-05-11 04:19:00,3061E-2,5C000410,-0724,1113,9426,027.6,045.3,0.156,750.5,01.17,0.508
2014-05-11 04:20:00,3028E-2,5C000410,-0724,1113,9402,027.6,045.3,0.157,750.4,01.17,0.508
2014-05-11 04:21:00,3039E-2,5C000410,-0724,1113,9447,027.6,045.3,0.156,750.4,01.17,0.508
2014-05-11 04:22:00,3061E-2,5C000410,-0724,1113,9240,027.6,045.3,0.156,750.4,01.17,0.508
2014-05-11 04:23:00,3086E-2,5C000410,-0724,1114,9565,027.5,045.3,0.157,750.4,01.17,0.508